HS3MXC-1 Weather Reports


time (UTC)temp
C
wind
direction
speed
KPH
gust
KPH
rain 1hr
cm
rain 24hr
cm
rain mn
cm
humidity
%
barometer
mb
20260504151148 30 0 0.0 0.0 0.00 0.00 0.00 64 997.8
20260504150641 30 0 0.0 0.0 0.00 0.00 0.00 64 997.8
20260504150135 30 0 0.0 0.0 0.00 0.00 0.00 63 997.7
20260504141009 31 0 0.0 0.0 0.00 0.00 0.00 62 997.0
20260504140500 31 0 0.0 0.0 0.00 0.00 0.00 62 996.9
20260504130324 31 0 0.0 0.0 0.00 0.00 0.00 60 996.5
20260504120152 32 0 0.0 0.0 0.00 0.00 0.00 59 998.0
20260504110535 33 0 0.0 0.0 0.00 0.00 0.00 58 996.7
20260504100412 33 0 0.0 0.0 0.00 0.00 0.00 58 993.8
20260504081647 33 0 0.0 0.0 0.00 0.00 0.00 56 994.1
20260504081140 34 0 0.0 0.0 0.00 0.00 0.00 56 994.3
20260504080633 34 0 0.0 0.0 0.00 0.00 0.00 55 994.3
20260504080126 34 0 0.0 0.0 0.00 0.00 0.00 56 994.3
20260504050732 32 0 0.0 0.0 0.00 0.00 0.00 60 998.1
20260504050225 32 0 0.0 0.0 0.00 0.00 0.00 60 998.1
20260504045719 32 0 0.0 0.0 0.00 0.00 0.00 61 998.2
20260504045213 32 0 0.0 0.0 0.00 0.00 0.00 61 998.3
20260504044705 32 0 0.0 0.0 0.00 0.00 0.00 62 998.3
20260504044159 32 0 0.0 0.0 0.00 0.00 0.00 60 998.5
20260504043146 31 0 0.0 0.0 0.00 0.00 0.00 62 998.5
20260504042133 31 0 0.0 0.0 0.00 0.00 0.00 62 998.6
20260504041625 31 0 0.0 0.0 0.00 0.00 0.00 62 998.6
20260504041119 31 0 0.0 0.0 0.00 0.00 0.00 62 998.6
20260504040105 31 0 0.0 0.0 0.00 0.00 0.00 63 998.7
20260504035559 31 0 0.0 0.0 0.00 0.00 0.00 63 998.8
20260504035052 31 0 0.0 0.0 0.00 0.00 0.00 63 998.8
20260504034545 31 0 0.0 0.0 0.00 0.00 0.00 63 998.8
20260504034038 31 0 0.0 0.0 0.00 0.00 0.00 63 998.9
20260504033532 31 0 0.0 0.0 0.00 0.00 0.00 63 999.0
20260504033025 31 0 0.0 0.0 0.00 0.00 0.00 62 999.2
20260504032012 31 0 0.0 0.0 0.00 0.00 0.00 62 999.4
20260504031505 31 0 0.0 0.0 0.00 0.00 0.00 63 999.5
20260504030452 30 0 0.0 0.0 0.00 0.00 0.00 63 999.7
20260504025946 30 0 0.0 0.0 0.00 0.00 0.00 63 999.8
20260504025439 30 0 0.0 0.0 0.00 0.00 0.00 63 999.9
20260504024933 30 0 0.0 0.0 0.00 0.00 0.00 63 999.9
20260504024427 30 0 0.0 0.0 0.00 0.00 0.00 63 1000.0
20260504023919 30 0 0.0 0.0 0.00 0.00 0.00 63 1000.0
20260504023412 30 0 0.0 0.0 0.00 0.00 0.00 63 1000.1
20260504022906 30 0 0.0 0.0 0.00 0.00 0.00 63 1000.1
20260504022359 30 0 0.0 0.0 0.00 0.00 0.00 63 1000.2
20260504021853 30 0 0.0 0.0 0.00 0.00 0.00 63 1000.2
20260504021346 30 0 0.0 0.0 0.00 0.00 0.00 63 1000.1
20260504020840 30 0 0.0 0.0 0.00 0.00 0.00 63 1000.1
20260504015826 30 0 0.0 0.0 0.00 0.00 0.00 63 1000.0
20260504015320 30 0 0.0 0.0 0.00 0.00 0.00 63 999.9
20260504014813 30 0 0.0 0.0 0.00 0.00 0.00 63 999.8
20260504014307 30 0 0.0 0.0 0.00 0.00 0.00 63 999.8
20260504013801 30 0 0.0 0.0 0.00 0.00 0.00 63 999.6
20260504013253 30 0 0.0 0.0 0.00 0.00 0.00 63 999.5
20260504012746 30 0 0.0 0.0 0.00 0.00 0.00 63 999.5
20260504012240 30 0 0.0 0.0 0.00 0.00 0.00 63 999.5
20260504011733 30 0 0.0 0.0 0.00 0.00 0.00 63 999.5
20260504011227 30 0 0.0 0.0 0.00 0.00 0.00 64 999.3
20260504010721 30 0 0.0 0.0 0.00 0.00 0.00 65 999.2
20260504010214 30 0 0.0 0.0 0.00 0.00 0.00 65 999.2
20260504005709 30 0 0.0 0.0 0.00 0.00 0.00 64 999.0
20260504005202 30 0 0.0 0.0 0.00 0.00 0.00 64 999.0
20260504004148 30 0 0.0 0.0 0.00 0.00 0.00 64 998.7
20260504003642 30 0 0.0 0.0 0.00 0.00 0.00 64 998.7
20260504003135 30 0 0.0 0.0 0.00 0.00 0.00 64 998.7
20260504002630 30 0 0.0 0.0 0.00 0.00 0.00 64 998.6
20260504001616 30 0 0.0 0.0 0.00 0.00 0.00 64 998.3
20260504000559 30 0 0.0 0.0 0.00 0.00 0.00 64 998.2
20260504000052 30 0 0.0 0.0 0.00 0.00 0.00 64 998.1
20260503235546 30 0 0.0 0.0 0.00 0.00 0.00 65 998.0
20260503235039 30 0 0.0 0.0 0.00 0.00 0.00 65 997.9
20260503234532 30 0 0.0 0.0 0.00 0.00 0.00 64 997.9
20260503233515 30 0 0.0 0.0 0.00 0.00 0.00 64 997.8
20260503233009 30 0 0.0 0.0 0.00 0.00 0.00 64 997.6
20260503232502 30 0 0.0 0.0 0.00 0.00 0.00 65 997.5
20260503231956 30 0 0.0 0.0 0.00 0.00 0.00 65 997.6
20260503230944 30 0 0.0 0.0 0.00 0.00 0.00 64 997.5
20260503230438 30 0 0.0 0.0 0.00 0.00 0.00 64 997.4
20260503225930 30 0 0.0 0.0 0.00 0.00 0.00 64 997.4
20260503225423 30 0 0.0 0.0 0.00 0.00 0.00 64 997.4
20260503224917 30 0 0.0 0.0 0.00 0.00 0.00 64 997.3
20260503224411 30 0 0.0 0.0 0.00 0.00 0.00 64 997.2
20260503223904 30 0 0.0 0.0 0.00 0.00 0.00 64 997.1
20260503223358 30 0 0.0 0.0 0.00 0.00 0.00 64 997.1
20260503222851 30 0 0.0 0.0 0.00 0.00 0.00 65 996.9
20260503221838 30 0 0.0 0.0 0.00 0.00 0.00 65 997.0
20260503221332 30 0 0.0 0.0 0.00 0.00 0.00 64 996.9
20260503220319 30 0 0.0 0.0 0.00 0.00 0.00 64 996.9
20260503215813 30 0 0.0 0.0 0.00 0.00 0.00 64 996.9
20260503215307 30 0 0.0 0.0 0.00 0.00 0.00 64 996.9
20260503214800 30 0 0.0 0.0 0.00 0.00 0.00 64 996.8
20260503214253 30 0 0.0 0.0 0.00 0.00 0.00 64 996.8
20260503213747 30 0 0.0 0.0 0.00 0.00 0.00 64 996.7
20260503213241 30 0 0.0 0.0 0.00 0.00 0.00 64 996.7
20260503212227 31 0 0.0 0.0 0.00 0.00 0.00 64 996.6
20260503211722 30 0 0.0 0.0 0.00 0.00 0.00 64 996.6
20260503211215 31 0 0.0 0.0 0.00 0.00 0.00 64 996.5
20260503210203 31 0 0.0 0.0 0.00 0.00 0.00 64 996.5
20260503205657 31 0 0.0 0.0 0.00 0.00 0.00 64 996.4
20260503205150 31 0 0.0 0.0 0.00 0.00 0.00 63 996.3
20260503204644 31 0 0.0 0.0 0.00 0.00 0.00 64 996.3
20260503204137 31 0 0.0 0.0 0.00 0.00 0.00 63 996.3
20260503203631 31 0 0.0 0.0 0.00 0.00 0.00 63 996.3
20260503203124 31 0 0.0 0.0 0.00 0.00 0.00 64 996.3
20260503202617 31 0 0.0 0.0 0.00 0.00 0.00 63 996.3
20260503202111 31 0 0.0 0.0 0.00 0.00 0.00 63 996.3
20260503201604 31 0 0.0 0.0 0.00 0.00 0.00 63 996.3
20260503201058 31 0 0.0 0.0 0.00 0.00 0.00 63 996.4
20260503200552 31 0 0.0 0.0 0.00 0.00 0.00 63 996.4
20260503200045 31 0 0.0 0.0 0.00 0.00 0.00 63 996.4
20260503195538 31 0 0.0 0.0 0.00 0.00 0.00 64 996.3
20260503195031 31 0 0.0 0.0 0.00 0.00 0.00 63 996.4
20260503194525 31 0 0.0 0.0 0.00 0.00 0.00 63 996.4
20260503194018 31 0 0.0 0.0 0.00 0.00 0.00 64 996.4
20260503193512 31 0 0.0 0.0 0.00 0.00 0.00 64 996.4
20260503193005 31 0 0.0 0.0 0.00 0.00 0.00 64 996.4
20260503192458 31 0 0.0 0.0 0.00 0.00 0.00 64 996.2
20260503191949 31 0 0.0 0.0 0.00 0.00 0.00 64 996.1
20260503191442 31 0 0.0 0.0 0.00 0.00 0.00 63 996.2
20260503190935 31 0 0.0 0.0 0.00 0.00 0.00 64 996.2
20260503190429 31 0 0.0 0.0 0.00 0.00 0.00 64 996.0
20260503185923 31 0 0.0 0.0 0.00 0.00 0.00 64 995.9
20260503185414 31 0 0.0 0.0 0.00 0.00 0.00 64 995.9
20260503184908 31 0 0.0 0.0 0.00 0.00 0.00 63 996.0
20260503183855 31 0 0.0 0.0 0.00 0.00 0.00 64 995.9
20260503183348 31 0 0.0 0.0 0.00 0.00 0.00 64 996.1
20260503182842 31 0 0.0 0.0 0.00 0.00 0.00 64 996.1
20260503182335 31 0 0.0 0.0 0.00 0.00 0.00 64 996.1
20260503181829 31 0 0.0 0.0 0.00 0.00 0.00 64 996.0
20260503180309 31 0 0.0 0.0 0.00 0.00 0.00 63 996.0
20260503175802 31 0 0.0 0.0 0.00 0.00 0.00 63 996.0
20260503175256 31 0 0.0 0.0 0.00 0.00 0.00 63 995.9
20260503174748 31 0 0.0 0.0 0.00 0.00 0.00 63 996.1
20260503174241 31 0 0.0 0.0 0.00 0.00 0.00 63 996.2
20260503173228 31 0 0.0 0.0 0.00 0.00 0.00 63 996.5
20260503172718 31 0 0.0 0.0 0.00 0.00 0.00 63 996.5
20260503172210 31 0 0.0 0.0 0.00 0.00 0.00 63 996.7
20260503170649 31 0 0.0 0.0 0.00 0.00 0.00 62 996.5
20260503170143 31 0 0.0 0.0 0.00 0.00 0.00 62 996.5